| time (UTC) | temp F | wind direction | speed MPH | gust MPH | rain 1hr in | rain 24hr in | rain mn in | humidity % | barometer mb |
| 20260901233805 | 71 | 112 | 12.0 | 18.0 | 0.00 | 0.00 | 0.00 | 70 | 1024.0 |
| 20260901233304 | 70 | 117 | 8.0 | 12.0 | 0.00 | 0.00 | 0.00 | 73 | 1024.1 |
| 20260901232804 | 70 | 115 | 6.0 | 10.0 | 0.00 | 0.00 | 0.00 | 72 | 1024.1 |
| 20260901231805 | 71 | 119 | 8.0 | 16.0 | 0.00 | 0.00 | 0.00 | 71 | 1024.2 |
| 20260901231305 | 71 | 117 | 9.0 | 13.0 | 0.00 | 0.00 | 0.00 | 71 | 1024.1 |
| 20260901230304 | 70 | 133 | 7.0 | 14.0 | 0.00 | 0.00 | 0.00 | 73 | 1024.0 |
| 20260901225306 | 69 | 118 | 5.0 | 15.0 | 0.00 | 0.00 | 0.00 | 82 | 1024.0 |
| 20260901224804 | 60 | 3 | 0.0 | 0.0 | 0.00 | 0.00 | 0.00 | 85 | 1023.9 |
| 20260901224305 | 60 | 3 | 0.0 | 0.0 | 0.00 | 0.00 | 0.00 | 85 | 1024.0 |
| 20260901223805 | 60 | 3 | 0.0 | 0.0 | 0.00 | 0.00 | 0.00 | 85 | 1023.9 |
| 20260901223304 | 60 | 3 | 0.0 | 0.0 | 0.00 | 0.00 | 0.00 | 85 | 1023.9 |
| 20260901222806 | 60 | 3 | 0.0 | 0.0 | 0.00 | 0.00 | 0.00 | 85 | 1023.9 |
| 20260901220804 | 60 | 3 | 0.0 | 0.0 | 0.00 | 0.00 | 0.00 | 85 | 1023.7 |
| 20260901220304 | 60 | 3 | 0.0 | 0.0 | 0.00 | 0.00 | 0.00 | 85 | 1023.6 |
| 20260901215804 | 60 | 3 | 0.0 | 0.0 | 0.00 | 0.00 | 0.00 | 85 | 1023.6 |
| 20260901215306 | 60 | 3 | 0.0 | 0.0 | 0.00 | 0.00 | 0.00 | 85 | 1023.5 |
| 20260901214804 | 60 | 3 | 0.0 | 0.0 | 0.00 | 0.00 | 0.00 | 85 | 1023.4 |
| 20260901214305 | 60 | 3 | 0.0 | 0.0 | 0.00 | 0.00 | 0.00 | 85 | 1023.3 |
| 20260901213304 | 60 | 3 | 0.0 | 0.0 | 0.00 | 0.00 | 0.00 | 85 | 1023.3 |
| 20260901212805 | 60 | 3 | 0.0 | 0.0 | 0.00 | 0.00 | 0.00 | 85 | 1023.2 |
| 20260901212306 | 60 | 3 | 0.0 | 0.0 | 0.00 | 0.00 | 0.00 | 85 | 1023.2 |
| 20260901211804 | 60 | 3 | 0.0 | 0.0 | 0.00 | 0.00 | 0.00 | 85 | 1023.2 |
| 20260901210804 | 60 | 3 | 0.0 | 0.0 | 0.00 | 0.00 | 0.00 | 85 | 1023.0 |
| 20260901210305 | 60 | 3 | 0.0 | 0.0 | 0.00 | 0.00 | 0.00 | 85 | 1023.0 |
| 20260901205804 | 60 | 3 | 0.0 | 0.0 | 0.00 | 0.00 | 0.00 | 85 | 1022.9 |
| 20260901205306 | 60 | 3 | 0.0 | 0.0 | 0.00 | 0.00 | 0.00 | 85 | 1022.8 |
| 20260901204305 | 60 | 3 | 0.0 | 0.0 | 0.00 | 0.00 | 0.00 | 85 | 1022.8 |
| 20260901203805 | 60 | 3 | 0.0 | 0.0 | 0.00 | 0.00 | 0.00 | 85 | 1022.6 |
| 20260901203304 | 60 | 3 | 0.0 | 0.0 | 0.00 | 0.00 | 0.00 | 85 | 1022.6 |
| 20260901202804 | 60 | 3 | 0.0 | 0.0 | 0.00 | 0.00 | 0.00 | 85 | 1022.5 |
| 20260901201804 | 60 | 4 | 0.0 | 0.0 | 0.00 | 0.00 | 0.00 | 85 | 1022.5 |
| 20260901200806 | 60 | 3 | 0.0 | 0.0 | 0.00 | 0.00 | 0.00 | 85 | 1022.4 |
| 20260901200304 | 60 | 3 | 0.0 | 0.0 | 0.00 | 0.00 | 0.00 | 85 | 1022.4 |
| 20260901195306 | 60 | 3 | 0.0 | 0.0 | 0.00 | 0.00 | 0.00 | 85 | 1022.3 |
| 20260901193804 | 60 | 3 | 0.0 | 0.0 | 0.00 | 0.00 | 0.00 | 85 | 1022.2 |
| 20260901193304 | 60 | 2 | 0.0 | 0.0 | 0.00 | 0.00 | 0.00 | 85 | 1022.2 |
| 20260901192805 | 60 | 3 | 0.0 | 0.0 | 0.00 | 0.00 | 0.00 | 85 | 1022.2 |
| 20260901191804 | 60 | 3 | 0.0 | 0.0 | 0.00 | 0.00 | 0.00 | 85 | 1022.2 |
| 20260901190804 | 60 | 3 | 0.0 | 0.0 | 0.00 | 0.00 | 0.00 | 85 | 1022.0 |
| 20260901190304 | 60 | 3 | 0.0 | 0.0 | 0.00 | 0.00 | 0.00 | 85 | 1021.9 |
| 20260901185804 | 60 | 3 | 0.0 | 0.0 | 0.00 | 0.00 | 0.00 | 85 | 1021.9 |
| 20260901184805 | 60 | 3 | 0.0 | 0.0 | 0.00 | 0.00 | 0.00 | 85 | 1021.8 |
| 20260901184304 | 60 | 3 | 0.0 | 0.0 | 0.00 | 0.00 | 0.00 | 85 | 1021.8 |
| 20260901183804 | 60 | 3 | 0.0 | 0.0 | 0.00 | 0.00 | 0.00 | 85 | 1021.9 |
| 20260901183304 | 60 | 3 | 0.0 | 0.0 | 0.00 | 0.00 | 0.00 | 85 | 1021.8 |
| 20260901182804 | 60 | 3 | 0.0 | 0.0 | 0.00 | 0.00 | 0.00 | 85 | 1021.9 |
| 20260901182305 | 60 | 3 | 0.0 | 0.0 | 0.00 | 0.00 | 0.00 | 85 | 1021.9 |
| 20260901181804 | 60 | 3 | 0.0 | 0.0 | 0.00 | 0.00 | 0.00 | 85 | 1022.0 |
| 20260901181304 | 60 | 3 | 0.0 | 0.0 | 0.00 | 0.00 | 0.00 | 85 | 1022.0 |
| 20260901180304 | 60 | 3 | 0.0 | 0.0 | 0.00 | 0.00 | 0.00 | 85 | 1022.1 |
| 20260901175804 | 60 | 3 | 0.0 | 0.0 | 0.00 | 0.00 | 0.00 | 85 | 1022.1 |
| 20260901175306 | 60 | 3 | 0.0 | 0.0 | 0.00 | 0.00 | 0.00 | 85 | 1022.1 |
| 20260901174805 | 60 | 3 | 0.0 | 0.0 | 0.00 | 0.00 | 0.00 | 85 | 1022.1 |
| 20260901174304 | 60 | 3 | 0.0 | 0.0 | 0.00 | 0.00 | 0.00 | 85 | 1022.1 |
| 20260901173804 | 60 | 3 | 0.0 | 0.0 | 0.00 | 0.00 | 0.00 | 85 | 1022.1 |
| 20260901173304 | 60 | 3 | 0.0 | 0.0 | 0.00 | 0.00 | 0.00 | 85 | 1022.1 |
| 20260901172305 | 60 | 3 | 0.0 | 0.0 | 0.00 | 0.00 | 0.00 | 85 | 1022.0 |
| 20260901171804 | 60 | 2 | 0.0 | 0.0 | 0.00 | 0.00 | 0.00 | 85 | 1022.1 |
| 20260901171304 | 60 | 3 | 0.0 | 0.0 | 0.00 | 0.00 | 0.00 | 85 | 1022.1 |
| 20260901170805 | 60 | 3 | 0.0 | 0.0 | 0.00 | 0.00 | 0.00 | 85 | 1022.1 |
| 20260901170304 | 60 | 3 | 0.0 | 0.0 | 0.00 | 0.00 | 0.00 | 85 | 1022.1 |
| 20260901164804 | 60 | 3 | 0.0 | 0.0 | 0.00 | 0.00 | 0.00 | 85 | 1022.2 |
| 20260901164305 | 60 | 3 | 0.0 | 0.0 | 0.00 | 0.00 | 0.00 | 85 | 1022.2 |
| 20260901163805 | 60 | 3 | 0.0 | 0.0 | 0.00 | 0.00 | 0.00 | 85 | 1022.2 |
| 20260901162804 | 60 | 3 | 0.0 | 0.0 | 0.00 | 0.00 | 0.00 | 85 | 1022.3 |
| 20260901162306 | 60 | 3 | 0.0 | 0.0 | 0.00 | 0.00 | 0.00 | 85 | 1022.5 |
| 20260901161804 | 60 | 3 | 0.0 | 0.0 | 0.00 | 0.00 | 0.00 | 85 | 1022.5 |
| 20260901161304 | 60 | 3 | 0.0 | 0.0 | 0.00 | 0.00 | 0.00 | 85 | 1022.5 |
| 20260901160804 | 60 | 3 | 0.0 | 0.0 | 0.00 | 0.00 | 0.00 | 85 | 1022.5 |
| 20260901160304 | 60 | 3 | 0.0 | 0.0 | 0.00 | 0.01 | 0.00 | 85 | 1022.5 |
| 20260901155805 | 60 | 3 | 0.0 | 0.0 | 0.00 | 0.01 | 0.00 | 85 | 1022.6 |
| 20260901154804 | 60 | 3 | 0.0 | 0.0 | 0.00 | 0.01 | 0.00 | 85 | 1022.7 |
| 20260901154304 | 60 | 3 | 0.0 | 0.0 | 0.00 | 0.01 | 0.00 | 85 | 1022.7 |
| 20260901153805 | 60 | 3 | 0.0 | 0.0 | 0.00 | 0.01 | 0.00 | 85 | 1022.8 |
| 20260901153304 | 60 | 3 | 0.0 | 0.0 | 0.00 | 0.01 | 0.00 | 85 | 1022.8 |
| 20260901152306 | 60 | 3 | 0.0 | 1.0 | 0.00 | 0.01 | 0.00 | 85 | 1022.9 |
| 20260901151304 | 60 | 148 | 1.0 | 2.0 | 0.00 | 0.01 | 0.00 | 85 | 1023.2 |
| 20260901150805 | 60 | 148 | 1.0 | 2.0 | 0.00 | 0.02 | 0.00 | 85 | 1023.1 |
| 20260901145805 | 60 | 148 | 0.0 | 2.0 | 0.00 | 0.02 | 0.00 | 85 | 1023.2 |
| 20260901145306 | 60 | 148 | 0.0 | 2.0 | 0.00 | 0.02 | 0.00 | 85 | 1023.2 |
| 20260901144805 | 59 | 148 | 0.0 | 3.0 | 0.00 | 0.02 | 0.00 | 85 | 1023.2 |
| 20260901144305 | 59 | 148 | 1.0 | 3.0 | 0.00 | 0.02 | 0.00 | 85 | 1023.3 |
| 20260901143804 | 59 | 149 | 1.0 | 2.0 | 0.00 | 0.02 | 0.00 | 84 | 1023.3 |
| 20260901143305 | 59 | 149 | 0.0 | 0.0 | 0.00 | 0.02 | 0.00 | 84 | 1023.3 |
| 20260901142306 | 59 | 149 | 0.0 | 0.0 | 0.00 | 0.02 | 0.00 | 84 | 1023.3 |
| 20260901141804 | 59 | 149 | 0.0 | 0.0 | 0.00 | 0.02 | 0.00 | 84 | 1023.3 |
| 20260901141305 | 60 | 149 | 0.0 | 0.0 | 0.00 | 0.02 | 0.00 | 84 | 1023.3 |
| 20260901140805 | 60 | 149 | 0.0 | 0.0 | 0.00 | 0.02 | 0.00 | 84 | 1023.4 |
| 20260901140306 | 60 | 149 | 0.0 | 2.0 | 0.00 | 0.02 | 0.00 | 84 | 1023.4 |
| 20260901135805 | 60 | 149 | 2.0 | 3.0 | 0.00 | 0.02 | 0.00 | 84 | 1023.5 |
| 20260901135305 | 60 | 149 | 2.0 | 3.0 | 0.00 | 0.02 | 0.00 | 84 | 1023.6 |
| 20260901134804 | 60 | 149 | 2.0 | 3.0 | 0.00 | 0.02 | 0.00 | 84 | 1023.6 |
| 20260901134304 | 60 | 152 | 2.0 | 3.0 | 0.00 | 0.02 | 0.00 | 84 | 1023.6 |
| 20260901133804 | 60 | 153 | 2.0 | 5.0 | 0.00 | 0.02 | 0.00 | 84 | 1023.6 |
| 20260901133305 | 60 | 154 | 1.0 | 3.0 | 0.00 | 0.02 | 0.00 | 84 | 1023.6 |
| 20260901132805 | 60 | 155 | 1.0 | 2.0 | 0.00 | 0.02 | 0.00 | 84 | 1023.7 |
| 20260901132307 | 60 | 154 | 0.0 | 2.0 | 0.00 | 0.02 | 0.00 | 84 | 1023.6 |
| 20260901131804 | 60 | 155 | 0.0 | 1.0 | 0.00 | 0.02 | 0.00 | 84 | 1023.7 |
| 20260901131305 | 60 | 154 | 0.0 | 2.0 | 0.00 | 0.02 | 0.00 | 84 | 1023.6 |
| 20260901130806 | 60 | 155 | 0.0 | 3.0 | 0.00 | 0.02 | 0.00 | 84 | 1023.6 |
| 20260901130304 | 60 | 155 | 1.0 | 3.0 | 0.00 | 0.02 | 0.00 | 83 | 1023.7 |
| 20260901125804 | 60 | 155 | 1.0 | 3.0 | 0.00 | 0.02 | 0.00 | 83 | 1023.7 |
| 20260901125308 | 60 | 155 | 2.0 | 3.0 | 0.00 | 0.02 | 0.00 | 83 | 1023.7 |
| 20260901124804 | 60 | 155 | 2.0 | 6.0 | 0.00 | 0.02 | 0.00 | 83 | 1023.6 |
| 20260901124304 | 61 | 157 | 2.0 | 6.0 | 0.00 | 0.02 | 0.00 | 83 | 1023.7 |
| 20260901123804 | 61 | 153 | 2.0 | 3.0 | 0.00 | 0.02 | 0.00 | 83 | 1023.6 |
| 20260901122805 | 61 | 153 | 2.0 | 6.0 | 0.00 | 0.02 | 0.00 | 83 | 1023.7 |
| 20260901122306 | 61 | 150 | 3.0 | 8.0 | 0.00 | 0.02 | 0.00 | 83 | 1023.7 |
| 20260901121804 | 61 | 155 | 2.0 | 6.0 | 0.00 | 0.02 | 0.00 | 83 | 1023.7 |
| 20260901121304 | 61 | 155 | 2.0 | 3.0 | 0.00 | 0.02 | 0.00 | 83 | 1023.8 |
| 20260901120804 | 61 | 154 | 3.0 | 6.0 | 0.00 | 0.02 | 0.00 | 83 | 1023.8 |
| 20260901120304 | 61 | 154 | 2.0 | 3.0 | 0.00 | 0.02 | 0.00 | 82 | 1023.8 |
| 20260901115804 | 61 | 153 | 2.0 | 3.0 | 0.00 | 0.02 | 0.00 | 82 | 1023.8 |
| 20260901114804 | 61 | 154 | 1.0 | 3.0 | 0.00 | 0.02 | 0.00 | 82 | 1023.8 |
| 20260901114306 | 61 | 155 | 1.0 | 3.0 | 0.00 | 0.02 | 0.00 | 82 | 1023.7 |
| 20260901113305 | 62 | 155 | 2.0 | 3.0 | 0.00 | 0.02 | 0.00 | 82 | 1023.8 |
| 20260901112806 | 62 | 155 | 1.0 | 3.0 | 0.00 | 0.02 | 0.00 | 82 | 1023.8 |
| 20260901112306 | 62 | 155 | 2.0 | 3.0 | 0.00 | 0.02 | 0.00 | 82 | 1023.8 |
| 20260901111804 | 62 | 154 | 2.0 | 8.0 | 0.00 | 0.02 | 0.00 | 82 | 1023.8 |
| 20260901111305 | 62 | 121 | 1.0 | 5.0 | 0.00 | 0.02 | 0.00 | 82 | 1023.9 |
| 20260901110804 | 62 | 121 | 3.0 | 3.0 | 0.00 | 0.02 | 0.00 | 82 | 1023.9 |
| 20260901110305 | 62 | 121 | 1.0 | 3.0 | 0.00 | 0.02 | 0.00 | 82 | 1023.8 |
| 20260901105804 | 62 | 120 | 1.0 | 2.0 | 0.00 | 0.02 | 0.00 | 82 | 1023.8 |
| 20260901105305 | 62 | 120 | 1.0 | 2.0 | 0.00 | 0.02 | 0.00 | 82 | 1023.8 |
| 20260901104804 | 62 | 120 | 1.0 | 2.0 | 0.00 | 0.02 | 0.00 | 82 | 1023.8 |
| 20260901104305 | 62 | 120 | 3.0 | 3.0 | 0.00 | 0.02 | 0.00 | 82 | 1023.8 |
| 20260901103304 | 63 | 120 | 1.0 | 3.0 | 0.00 | 0.02 | 0.00 | 81 | 1023.8 |
| 20260901102306 | 63 | 120 | 0.0 | 0.0 | 0.00 | 0.02 | 0.00 | 81 | 1023.6 |
| 20260901101804 | 63 | 120 | 0.0 | 0.0 | 0.00 | 0.02 | 0.00 | 81 | 1023.6 |
| 20260901101305 | 63 | 120 | 1.0 | 2.0 | 0.00 | 0.02 | 0.00 | 81 | 1023.5 |
| 20260901100804 | 63 | 120 | 2.0 | 3.0 | 0.00 | 0.02 | 0.00 | 81 | 1023.5 |
| 20260901100304 | 63 | 120 | 1.0 | 3.0 | 0.00 | 0.02 | 0.00 | 81 | 1023.3 |
| 20260901095804 | 63 | 121 | 2.0 | 3.0 | 0.00 | 0.02 | 0.00 | 81 | 1023.2 |
| 20260901095306 | 64 | 121 | 1.0 | 3.0 | 0.00 | 0.02 | 0.00 | 81 | 1023.2 |
| 20260901094805 | 64 | 121 | 2.0 | 3.0 | 0.00 | 0.02 | 0.00 | 81 | 1023.2 |
| 20260901094305 | 64 | 121 | 2.0 | 3.0 | 0.00 | 0.02 | 0.00 | 81 | 1023.1 |
| 20260901093804 | 64 | 121 | 2.0 | 3.0 | 0.00 | 0.02 | 0.00 | 81 | 1023.1 |
| 20260901092805 | 64 | 122 | 4.0 | 8.0 | 0.00 | 0.02 | 0.00 | 81 | 1022.9 |
| 20260901091804 | 64 | 141 | 5.0 | 9.0 | 0.00 | 0.02 | 0.00 | 80 | 1022.8 |
| 20260901091305 | 64 | 130 | 5.0 | 10.0 | 0.00 | 0.02 | 0.00 | 80 | 1022.7 |
| 20260901090806 | 64 | 134 | 3.0 | 5.0 | 0.00 | 0.02 | 0.00 | 80 | 1022.8 |
| 20260901090304 | 64 | 136 | 2.0 | 3.0 | 0.00 | 0.02 | 0.00 | 80 | 1022.7 |
| 20260901085804 | 64 | 136 | 3.0 | 7.0 | 0.00 | 0.02 | 0.00 | 80 | 1022.6 |
| 20260901085306 | 64 | 130 | 2.0 | 3.0 | 0.00 | 0.02 | 0.00 | 80 | 1022.5 |
| 20260901084305 | 65 | 130 | 2.0 | 3.0 | 0.00 | 0.02 | 0.00 | 80 | 1022.3 |
| 20260901083804 | 65 | 130 | 2.0 | 3.0 | 0.00 | 0.02 | 0.00 | 80 | 1022.3 |
| 20260901083304 | 65 | 130 | 2.0 | 3.0 | 0.00 | 0.02 | 0.00 | 80 | 1022.2 |
| 20260901082805 | 65 | 130 | 2.0 | 3.0 | 0.00 | 0.02 | 0.00 | 80 | 1022.2 |
| 20260901081304 | 66 | 130 | 1.0 | 2.0 | 0.00 | 0.02 | 0.00 | 80 | 1022.1 |
| 20260901080806 | 66 | 130 | 2.0 | 3.0 | 0.00 | 0.02 | 0.00 | 80 | 1022.0 |
| 20260901080305 | 66 | 130 | 0.0 | 2.0 | 0.00 | 0.02 | 0.00 | 80 | 1022.0 |
| 20260901075805 | 66 | 130 | 2.0 | 3.0 | 0.00 | 0.02 | 0.00 | 80 | 1022.0 |
| 20260901075307 | 66 | 130 | 2.0 | 3.0 | 0.00 | 0.02 | 0.00 | 80 | 1021.9 |
| 20260901074804 | 66 | 130 | 1.0 | 5.0 | 0.00 | 0.02 | 0.00 | 80 | 1021.9 |
| 20260901074304 | 66 | 128 | 3.0 | 5.0 | 0.00 | 0.02 | 0.00 | 80 | 1021.9 |
| 20260901073805 | 66 | 128 | 2.0 | 3.0 | 0.00 | 0.02 | 0.00 | 80 | 1021.9 |
| 20260901073304 | 66 | 128 | 4.0 | 7.0 | 0.00 | 0.02 | 0.00 | 80 | 1022.0 |
| 20260901072309 | 66 | 129 | 5.0 | 7.0 | 0.00 | 0.02 | 0.00 | 81 | 1022.0 |
| 20260901071804 | 66 | 130 | 2.0 | 5.0 | 0.00 | 0.02 | 0.00 | 81 | 1021.9 |
| 20260901071304 | 66 | 132 | 2.0 | 7.0 | 0.00 | 0.02 | 0.00 | 81 | 1021.9 |
| 20260901070804 | 66 | 128 | 3.0 | 7.0 | 0.00 | 0.02 | 0.00 | 81 | 1021.8 |
| 20260901065804 | 66 | 127 | 3.0 | 6.0 | 0.00 | 0.02 | 0.00 | 82 | 1021.8 |
| 20260901065306 | 66 | 155 | 3.0 | 3.0 | 0.00 | 0.02 | 0.00 | 82 | 1021.8 |
| 20260901064804 | 67 | 155 | 2.0 | 3.0 | 0.00 | 0.02 | 0.00 | 82 | 1021.8 |
| 20260901064305 | 67 | 155 | 2.0 | 3.0 | 0.00 | 0.02 | 0.00 | 82 | 1021.8 |
| 20260901063804 | 67 | 155 | 2.0 | 3.0 | 0.00 | 0.02 | 0.00 | 82 | 1021.8 |
| 20260901063304 | 67 | 153 | 2.0 | 3.0 | 0.00 | 0.02 | 0.00 | 81 | 1021.8 |
| 20260901062805 | 67 | 153 | 2.0 | 3.0 | 0.00 | 0.02 | 0.00 | 81 | 1021.8 |
| 20260901062309 | 67 | 153 | 1.0 | 3.0 | 0.00 | 0.02 | 0.00 | 81 | 1021.8 |
| 20260901061804 | 66 | 152 | 2.0 | 5.0 | 0.00 | 0.02 | 0.00 | 80 | 1021.8 |
| 20260901061304 | 66 | 155 | 3.0 | 7.0 | 0.00 | 0.02 | 0.00 | 80 | 1021.8 |
| 20260901060804 | 67 | 130 | 3.0 | 7.0 | 0.00 | 0.02 | 0.00 | 80 | 1021.7 |
| 20260901060304 | 67 | 119 | 3.0 | 8.0 | 0.00 | 0.02 | 0.00 | 79 | 1021.7 |
| 20260901055804 | 67 | 125 | 8.0 | 10.0 | 0.00 | 0.02 | 0.00 | 78 | 1021.7 |
| 20260901055306 | 67 | 95 | 5.0 | 8.0 | 0.00 | 0.02 | 0.00 | 78 | 1021.6 |
| 20260901054805 | 67 | 94 | 5.0 | 9.0 | 0.00 | 0.02 | 0.00 | 79 | 1021.6 |
| 20260901054305 | 67 | 103 | 6.0 | 12.0 | 0.00 | 0.02 | 0.00 | 79 | 1021.5 |
| 20260901053804 | 68 | 102 | 8.0 | 12.0 | 0.00 | 0.02 | 0.00 | 78 | 1021.6 |
| 20260901053304 | 68 | 83 | 7.0 | 12.0 | 0.00 | 0.02 | 0.00 | 78 | 1021.5 |
| 20260901052307 | 68 | 60 | 5.0 | 9.0 | 0.00 | 0.02 | 0.00 | 78 | 1021.5 |
| 20260901051806 | 69 | 78 | 8.0 | 12.0 | 0.00 | 0.02 | 0.00 | 78 | 1021.5 |
| 20260901051304 | 69 | 51 | 6.0 | 13.0 | 0.00 | 0.02 | 0.00 | 78 | 1021.5 |
| 20260901050806 | 69 | 59 | 7.0 | 12.0 | 0.00 | 0.02 | 0.00 | 79 | 1021.5 |
| 20260901050304 | 68 | 44 | 5.0 | 10.0 | 0.00 | 0.02 | 0.00 | 79 | 1021.5 |
| 20260901045804 | 68 | 45 | 4.0 | 10.0 | 0.00 | 0.02 | 0.00 | 80 | 1021.6 |
| 20260901045306 | 68 | 75 | 3.0 | 7.0 | 0.00 | 0.02 | 0.00 | 80 | 1021.7 |
| 20260901044804 | 68 | 81 | 3.0 | 8.0 | 0.00 | 0.02 | 0.00 | 79 | 1021.7 |
| 20260901043804 | 68 | 112 | 4.0 | 9.0 | 0.00 | 0.02 | 0.00 | 78 | 1021.8 |
| 20260901043304 | 68 | 113 | 5.0 | 9.0 | 0.00 | 0.02 | 0.00 | 78 | 1021.9 |
| 20260901042806 | 69 | 138 | 4.0 | 9.0 | 0.00 | 0.02 | 0.00 | 78 | 1021.9 |
| 20260901042306 | 69 | 117 | 7.0 | 18.0 | 0.00 | 0.02 | 0.00 | 78 | 1022.0 |
| 20260901041805 | 69 | 82 | 5.0 | 12.0 | 0.00 | 0.02 | 0.00 | 78 | 1021.9 |
| 20260901041305 | 70 | 54 | 5.0 | 12.0 | 0.00 | 0.02 | 0.00 | 78 | 1022.0 |
| 20260901040805 | 70 | 124 | 5.0 | 9.0 | 0.00 | 0.02 | 0.00 | 78 | 1022.0 |
| 20260901040305 | 70 | 149 | 7.0 | 9.0 | 0.00 | 0.02 | 0.00 | 77 | 1022.1 |
| 20260901035806 | 70 | 141 | 6.0 | 10.0 | 0.00 | 0.02 | 0.00 | 78 | 1022.2 |
| 20260901035305 | 69 | 141 | 6.0 | 10.0 | 0.00 | 0.02 | 0.00 | 78 | 1022.3 |
| 20260901034804 | 69 | 161 | 6.0 | 10.0 | 0.00 | 0.02 | 0.00 | 78 | 1022.4 |
| 20260901034305 | 70 | 172 | 7.0 | 12.0 | 0.00 | 0.02 | 0.00 | 78 | 1022.4 |
| 20260901033804 | 70 | 167 | 10.0 | 14.0 | 0.00 | 0.02 | 0.00 | 76 | 1022.5 |
| 20260901032804 | 71 | 141 | 9.0 | 15.0 | 0.00 | 0.02 | 0.00 | 71 | 1022.6 |
| 20260901032306 | 71 | 107 | 7.0 | 13.0 | 0.00 | 0.02 | 0.00 | 70 | 1022.6 |
| 20260901031804 | 72 | 79 | 9.0 | 15.0 | 0.00 | 0.02 | 0.00 | 70 | 1022.7 |
| 20260901031304 | 72 | 102 | 6.0 | 14.0 | 0.00 | 0.02 | 0.00 | 70 | 1022.8 |
| 20260901030804 | 72 | 120 | 10.0 | 15.0 | 0.00 | 0.02 | 0.00 | 70 | 1022.7 |
| 20260901030304 | 72 | 104 | 7.0 | 12.0 | 0.00 | 0.02 | 0.00 | 72 | 1022.8 |
| 20260901025306 | 71 | 125 | 6.0 | 12.0 | 0.00 | 0.02 | 0.00 | 75 | 1023.0 |
| 20260901024304 | 71 | 122 | 5.0 | 10.0 | 0.00 | 0.02 | 0.00 | 76 | 1023.1 |
| 20260901023805 | 70 | 155 | 6.0 | 9.0 | 0.00 | 0.03 | 0.00 | 76 | 1023.3 |
| 20260901022805 | 70 | 101 | 5.0 | 13.0 | 0.00 | 0.03 | 0.00 | 78 | 1023.5 |
| 20260901022306 | 69 | 163 | 5.0 | 12.0 | 0.00 | 0.03 | 0.00 | 78 | 1023.5 |
| 20260901021804 | 69 | 138 | 9.0 | 16.0 | 0.00 | 0.03 | 0.00 | 77 | 1023.6 |
| 20260901021304 | 69 | 107 | 11.0 | 17.0 | 0.00 | 0.03 | 0.00 | 76 | 1023.7 |
| 20260901020804 | 69 | 96 | 12.0 | 18.0 | 0.00 | 0.03 | 0.00 | 74 | 1023.7 |
| 20260901020304 | 70 | 91 | 11.0 | 20.0 | 0.00 | 0.03 | 0.00 | 73 | 1023.8 |
| 20260901015305 | 72 | 97 | 10.0 | 17.0 | 0.00 | 0.03 | 0.00 | 71 | 1023.7 |
| 20260901014304 | 72 | 88 | 8.0 | 14.0 | 0.00 | 0.03 | 0.00 | 70 | 1023.8 |
| 20260901013804 | 72 | 104 | 7.0 | 12.0 | 0.00 | 0.03 | 0.00 | 71 | 1023.8 |
| 20260901013304 | 71 | 79 | 7.0 | 12.0 | 0.00 | 0.03 | 0.00 | 72 | 1024.0 |
| 20260901012804 | 71 | 122 | 9.0 | 12.0 | 0.00 | 0.03 | 0.00 | 72 | 1024.1 |
| 20260901011805 | 71 | 106 | 9.0 | 15.0 | 0.00 | 0.03 | 0.00 | 72 | 1024.1 |
| 20260901011304 | 72 | 118 | 7.0 | 17.0 | 0.00 | 0.03 | 0.00 | 71 | 1024.2 |
| 20260901010805 | 71 | 143 | 8.0 | 12.0 | 0.00 | 0.03 | 0.00 | 74 | 1024.3 |
| 20260901010306 | 71 | 118 | 7.0 | 14.0 | 0.00 | 0.03 | 0.00 | 75 | 1024.4 |
| 20260901005804 | 71 | 133 | 7.0 | 12.0 | 0.00 | 0.03 | 0.00 | 75 | 1024.4 |
| 20260901005307 | 70 | 123 | 5.0 | 13.0 | 0.00 | 0.03 | 0.00 | 75 | 1024.5 |
| 20260901004804 | 70 | 110 | 7.0 | 12.0 | 0.00 | 0.03 | 0.00 | 76 | 1024.6 |
| 20260901003804 | 69 | 135 | 5.0 | 10.0 | 0.00 | 0.03 | 0.00 | 77 | 1024.7 |
| 20260901003305 | 69 | 94 | 7.0 | 10.0 | 0.00 | 0.03 | 0.00 | 78 | 1024.7 |
| 20260901002805 | 68 | 123 | 4.0 | 9.0 | 0.00 | 0.03 | 0.00 | 79 | 1024.8 |
| 20260901002305 | 67 | 117 | 4.0 | 10.0 | 0.00 | 0.03 | 0.00 | 79 | 1025.0 |
| 20260901001805 | 67 | 122 | 6.0 | 9.0 | 0.00 | 0.03 | 0.00 | 79 | 1024.9 |
| 20260901001305 | 67 | 139 | 5.0 | 8.0 | 0.00 | 0.03 | 0.00 | 80 | 1025.0 |
| 20260901000804 | 67 | 147 | 3.0 | 6.0 | 0.00 | 0.03 | 0.00 | 80 | 1024.9 |
| 20260901000305 | 67 | 146 | 4.0 | 7.0 | 0.00 | 0.03 | 0.00 | 80 | 1024.9 |
| 20260831235306 | 67 | 129 | 3.0 | 9.0 | 0.00 | 0.03 | 0.00 | 81 | 1025.0 |
| 20260831234804 | 62 | 3 | 0.0 | 0.0 | 0.00 | 0.03 | 0.00 | 87 | 1025.0 |